Regional Weather Roundup
Issued by NWS

Home | Current Version | Previous Version | Graphics & Text | Print | Product List | Glossary On
Versions: 1 2 3 4 5 6 7 8 9 10 11 12 13 14 15 16 17 18 19 20 21 22 23 24 25 26 27 28 29 30 31 32 33 34 35 36 37 38 39 40 41 42 43 44 45 46 47 48 49 50
184
ASUS44 KJAN 170903
RWRMS

MISSISSIPPI HOURLY WEATHER ROUNDUP
NATIONAL WEATHER SERVICE JACKSON MS
300 AM CST WED DEC 17 2014

NOTE: "FAIR: INDICATES FEW OR NO CLOUDS BELOW 12,000 FEET WITH NO
SIGNIFICANT WEATHER AND/OR OBSTRUCTIONS TO VISIBILITY.

MSZ001>002-007>008-010>013-018>021-025>028-034>036-171000-
NORTHWEST MISSISSIPPI

CITY           SKY/WX    TMP DP  RH WIND       PRES   REMARKS
CLARKSDALE     FAIR      34  32  93 N8        30.32S WCI  27
CLEVELAND      FAIR      34  32  93 N8        30.31R WCI  27
GREENWOOD      CLEAR     33  31  92 N3        30.29F
GREENVILLE     CLEAR     35  31  85 N6        30.30S WCI  30
GRENADA        FAIR      32  32 100 CALM      30.29F
OLIVE BRANCH   CLEAR     30  30 100 NW6       30.31R WCI  24
OXFORD         FAIR      28  28 100 CALM      30.30S
TUNICA         SUNNY     32  30  93 N8        30.33S WCI  25
$$

MSZ003>006-009-014>017-022>024-029>033-037>039-171000-
NORTHEAST MISSISSIPPI

CITY           SKY/WX    TMP DP  RH WIND       PRES   REMARKS
COLUMBUS AFB   CLEAR     30  29  96 W1        30.27S
CORINTH        CLOUDY    41  32  70 NW5       30.27S
GOLDN TRIANGLE CLEAR     34  30  86 NW5       30.25F WCI  30
STARKVILLE     FAIR      32  32 100 CALM      30.27S FOG
TUPELO         CLEAR     37  33  85 N5        30.27F WCI  33
$$

MSZ040-058-171000-
CENTRAL MISSISSIPPI

CITY           SKY/WX    TMP DP  RH WIND       PRES   REMARKS
JACKSON INTL   CLEAR     33  32  96 CALM      30.27F
JACKSON HAWKNS CLEAR     36  33  89 NW3       30.27F
MERIDIAN KEY   CLEAR     30  29  96 CALM      30.26F
MERIDIAN NAS   CLEAR     34  32  92 CALM      30.27S
RAYMOND        FAIR      32  27  80 MISG      30.28S FOG
VICKSBURG      CLEAR     32  30  92 CALM      30.28F
$$

MSZ059>079-171000-
SOUTH MISSISSIPPI

CITY           SKY/WX    TMP DP  RH WIND       PRES   REMARKS
HATTIESBURG    CLEAR     35  33  92 CALM      30.27S
MCCOMB         CLEAR     42  35  76 N3        30.24F
NATCHEZ        CLEAR     34  30  86 CALM      30.26S
PINE BELT      CLEAR     36  30  80 CALM      30.26F
$$

MSZ080>082-171000-
COASTAL MISSISSIPPI

CITY           SKY/WX    TMP DP  RH WIND       PRES   REMARKS
BILOXI         CLEAR     43  37  80 N8        30.26R
PASCAGOULA     CLEAR     39  35  86 N3        30.26S
GULFPORT       CLEAR     42  36  79 N6        30.26R
$$



USA.gov is the U.S. government's official web portal to all federal, state and local government web resources and services.